Weather History for KBFD - February, 2012

Change the Weather History Date:

Thursday, February 23, 2012

  Actual Average Record
Temperature  
Mean Temperature 32 °F 25 °F  
Max Temperature 37 °F 34 °F 57 °F (1977)
Min Temperature 28 °F 16 °F -13 °F (2015)
Degree Days  
Heating Degree Days 32 34  
Month to date heating degree days 834  
Since 1 July heating degree days 5245  
Cooling Degree Days 0 0  
Month to date cooling degree days 0  
Year to date cooling degree days 0  
Moisture  
Dew Point 28 °F    
Average Humidity 83    
Maximum Humidity 93    
Minimum Humidity 60    
Precipitation  
Precipitation 0.19 in 0.09 in 0.91 in (1975)
Month to date precipitation 1.90  
Year to date precipitation 5.19  
Sea Level Pressure  
Sea Level Pressure 29.52 in    
Wind  
Wind Speed 6 mph (WNW)    
Max Wind Speed 14 mph    
Max Gust Speed -    
Visibility 6 miles    
Events Fog , Rain , Snow    
T = Trace of Precipitation, MM = Missing Value Source: NWS Daily Summary

Daily Weather History Graph

Daily Weather History Graph

Search for Another Location

Airport or City:

Trip Planner

Search our weather history database for the weather conditions in past years. The results will help you decide how hot, cold, wet, or windy it might be!

Date:

Astronomy

Feb. 23, 2012 Rise Set
Actual Time 6:59 AM EST 5:57 PM EST
Civil Twilight 6:31 AM EST 6:25 PM EST
Nautical Twilight 5:59 AM EST 6:57 PM EST
Astronomical Twilight 5:26 AM EST 7:29 PM EST
Moon 7:22 AM EST (2/23) 8:03 PM EST (2/23)
Length of Visible Light 11h 53m
Length of Day
10h 57m
Waxing Crescent, 3% of the Moon is Illuminated
Feb 23
Waxing Crescent
Feb 29
First Quarter
Mar 8
Full
Mar 14
Last Quarter
Mar 22
New

Hourly Weather History & Observations

Time (EST) Temp. Windchill Dew Point Humidity Pressure Visibility Wind Dir Wind Speed Gust Speed Precip Events Conditions
12:28 AM 37.4 °F - 33.8 °F 87% 29.37 in 10.0 mi Calm Calm - 0.00 in   Overcast
12:53 AM 35.1 °F 28.6 °F 32.0 °F 89% 29.40 in 3.0 mi NW 8.1 mph - 0.03 in Snow Light Snow
12:58 AM 33.8 °F 28.6 °F 30.2 °F 87% 29.37 in 1.8 mi WNW 5.8 mph - 0.01 in Snow Light Snow
1:06 AM 33.8 °F 27.7 °F 30.2 °F 87% 29.38 in 0.8 mi NW 6.9 mph - 0.04 in Snow Light Snow
1:36 AM 33.8 °F 27.7 °F 30.2 °F 87% 29.38 in 1.8 mi WNW 6.9 mph - 0.08 in Snow Light Snow
1:53 AM 33.1 °F 26.9 °F 30.9 °F 92% 29.40 in 2.0 mi WNW 6.9 mph - 0.08 in Snow Light Snow
2:12 AM 33.8 °F 27.7 °F 30.2 °F 87% 29.37 in 1.0 mi NW 6.9 mph - 0.01 in Snow Light Snow
2:21 AM 33.8 °F 29.6 °F 30.2 °F 87% 29.37 in 3.0 mi NW 4.6 mph - 0.01 in Snow Light Snow
2:34 AM 33.8 °F 25.8 °F 30.2 °F 87% 29.38 in 2.5 mi NW 10.4 mph - 0.01 in Snow Light Snow
2:45 AM 32.0 °F 22.1 °F 28.4 °F 87% 29.38 in 1.0 mi NNW 13.8 mph - 0.02 in Snow Light Snow
2:53 AM 32.0 °F 23.6 °F 30.0 °F 92% 29.42 in 1.2 mi NW 10.4 mph - 0.02 in Snow Light Snow
2:57 AM 32.0 °F 26.4 °F 30.2 °F 93% 29.38 in 0.8 mi NW 5.8 mph - 0.01 in Snow Light Snow
3:11 AM 32.0 °F 26.4 °F 30.2 °F 93% 29.38 in 2.0 mi NW 5.8 mph - 0.01 in Snow Light Snow
3:21 AM 32.0 °F 26.4 °F 30.2 °F 93% 29.38 in 3.0 mi NW 5.8 mph - 0.01 in Snow Light Snow
3:25 AM 32.0 °F 26.4 °F 30.2 °F 93% 29.38 in 2.5 mi NW 5.8 mph - 0.01 in Snow Light Snow
3:42 AM 32.0 °F 25.6 °F 28.4 °F 87% 29.39 in 4.0 mi WNW 6.9 mph - 0.01 in Snow Light Snow
3:53 AM 32.0 °F 26.4 °F 28.0 °F 85% 29.42 in 5.0 mi WNW 5.8 mph - 0.01 in Snow Light Snow
4:53 AM 30.9 °F 25.2 °F 28.0 °F 89% 29.43 in 10.0 mi WNW 5.8 mph - 0.00 in   Overcast
5:53 AM 28.9 °F 23.9 °F 26.1 °F 89% 29.47 in 10.0 mi WNW 4.6 mph - N/A   Mostly Cloudy
6:53 AM 28.9 °F - 25.0 °F 85% 29.49 in 10.0 mi Calm Calm - N/A   Mostly Cloudy
7:53 AM 28.9 °F 23.9 °F 26.1 °F 89% 29.53 in 9.0 mi Variable 4.6 mph - N/A   Overcast
8:53 AM 30.0 °F 25.2 °F 26.1 °F 85% 29.57 in 10.0 mi Variable 4.6 mph - N/A   Overcast
9:53 AM 30.0 °F 24.1 °F 27.0 °F 88% 29.60 in 9.0 mi NW 5.8 mph - N/A   Overcast
10:31 AM 32.0 °F 27.5 °F 26.6 °F 80% 29.57 in 10.0 mi West 4.6 mph - N/A   Overcast
10:53 AM 32.0 °F 27.5 °F 27.0 °F 82% 29.61 in 10.0 mi Variable 4.6 mph - N/A   Mostly Cloudy
11:04 AM 33.8 °F 29.6 °F 28.4 °F 81% 29.58 in 10.0 mi WSW 4.6 mph - N/A   Mostly Cloudy
11:53 AM 34.0 °F 27.2 °F 27.0 °F 75% 29.62 in 10.0 mi West 8.1 mph - 0.00 in Rain Light Rain
12:53 PM 35.1 °F 27.9 °F 27.0 °F 72% 29.62 in 10.0 mi West 9.2 mph - 0.00 in   Overcast
1:53 PM 37.0 °F 30.4 °F 27.0 °F 67% 29.62 in 10.0 mi West 9.2 mph - N/A   Scattered Clouds
2:53 PM 37.0 °F 31.6 °F 25.0 °F 62% 29.66 in 10.0 mi Variable 6.9 mph - N/A   Partly Cloudy
3:53 PM 37.9 °F 32.7 °F 25.0 °F 60% 29.66 in 10.0 mi West 6.9 mph - N/A   Clear
4:53 PM 37.0 °F 34.5 °F 26.1 °F 65% 29.66 in 10.0 mi Variable 3.5 mph - N/A   Clear
5:53 PM 36.0 °F - 26.1 °F 67% 29.66 in 10.0 mi Calm Calm - N/A   Clear
6:53 PM 34.0 °F - 28.0 °F 79% 29.68 in 10.0 mi Calm Calm - N/A   Mostly Cloudy
7:53 PM 33.1 °F - 27.0 °F 78% 29.67 in 10.0 mi Calm Calm - N/A   Overcast
8:53 PM 34.0 °F - 26.1 °F 73% 29.68 in 10.0 mi Calm Calm - N/A   Overcast
9:53 PM 35.1 °F 32.2 °F 26.1 °F 70% 29.69 in 10.0 mi Variable 3.5 mph - N/A   Overcast
10:42 PM 33.8 °F 27.0 °F 28.4 °F 81% 29.59 in 1.8 mi ESE 8.1 mph - 0.00 in Snow Light Snow
10:53 PM 33.1 °F 26.9 °F 28.0 °F 82% 29.62 in 2.5 mi ESE 6.9 mph - 0.00 in Snow Light Snow
11:01 PM 33.8 °F 27.7 °F 28.4 °F 81% 29.58 in 4.0 mi East 6.9 mph - 0.00 in Snow Light Snow
11:26 PM 33.8 °F 25.8 °F 28.4 °F 81% 29.59 in 2.5 mi SE 10.4 mph - 0.00 in Snow Light Snow
11:32 PM 33.8 °F 26.4 °F 30.2 °F 87% 29.59 in 1.8 mi SE 9.2 mph - 0.00 in Snow Light Snow
11:42 PM 33.8 °F 25.8 °F 30.2 °F 87% 29.57 in 0.5 mi ESE 10.4 mph - 0.02 in Fog , Snow Snow
11:53 PM 33.1 °F 26.1 °F 30.0 °F 89% 29.62 in 0.5 mi East 8.1 mph - 0.05 in Fog , Snow Snow